Westminster, MD

7:56 AM EST on January 16, 2017 (GMT -0500)
Carroll County Regional-Poage

Weather History for KDMW - September, 2012

Change the Weather History Date:

Monday, September 24, 2012

  Actual Average (KTHV) Record (KTHV)
Temperature  
Mean Temperature 55 °F -  
Max Temperature 64 °F 0 °F 93 °F (2010)
Min Temperature 46 °F - 36 °F (1998)
Degree Days  
Heating Degree Days 10    
Growing Degree Days 5 (Base 50)    
Moisture  
Dew Point 38 °F    
Average Humidity 57    
Maximum Humidity 87    
Minimum Humidity 27    
Precipitation  
Precipitation 0.00 in - - ()
Sea Level Pressure  
Sea Level Pressure 30.19 in    
Wind  
Wind Speed 2 mph (West)    
Max Wind Speed 10 mph    
Max Gust Speed 20 mph    
Visibility 10 miles    
Events      
Averages and records for this station are not official NWS values.
T = Trace of Precipitation, MM = Missing Value Source: NWS Daily Summary

Daily Weather History Graph

Daily Weather History Graph

Search for Another Location

Airport or City:

Trip Planner

Search our weather history database for the weather conditions in past years. The results will help you decide how hot, cold, wet, or windy it might be!

Date:

Astronomy

Sep. 24, 2012 Rise Set
Actual Time 6:57 AM EDT 7:01 PM EDT
Civil Twilight 6:31 AM EDT 7:27 PM EDT
Nautical Twilight 5:59 AM EDT 7:59 PM EDT
Astronomical Twilight 5:27 AM EDT 8:30 PM EDT
Moon 3:44 PM EDT (9/24) 1:13 AM EDT (9/24)
Length of Visible Light 12h 56m
Length of Day
12h 03m
Waxing Gibbous, 70% of the Moon is Illuminated
Sep 24
Waxing Gibbous
Sep 29
Full
Oct 8
Last Quarter
Oct 15
New
Oct 21
First Quarter

Hourly Weather History & Observations

Time (EDT) Temp. Dew Point Humidity Pressure Visibility Wind Dir Wind Speed Gust Speed Precip Events Conditions
12:19 AM 50.0 °F 42.8 °F 76% 30.18 in 10.0 mi Calm Calm - N/A   Overcast
12:40 AM 50.0 °F 42.8 °F 76% 30.17 in 10.0 mi Calm Calm - N/A   Overcast
1:01 AM 48.2 °F 42.8 °F 82% 30.17 in 10.0 mi Calm Calm - N/A   Overcast
1:22 AM 48.2 °F 42.8 °F 82% 30.17 in 10.0 mi Calm Calm - N/A   Overcast
1:43 AM 48.2 °F 42.8 °F 82% 30.17 in 10.0 mi Calm Calm - N/A   Mostly Cloudy
2:04 AM 48.2 °F 42.8 °F 82% 30.17 in 10.0 mi Calm Calm - N/A   Scattered Clouds
2:28 AM 48.2 °F 42.8 °F 82% 30.17 in 10.0 mi Calm Calm - N/A   Scattered Clouds
2:49 AM 48.2 °F 42.8 °F 82% 30.17 in 10.0 mi Calm Calm - N/A   Scattered Clouds
3:10 AM 48.2 °F 42.8 °F 82% 30.17 in 10.0 mi Calm Calm - N/A   Mostly Cloudy
3:31 AM 46.4 °F 42.8 °F 87% 30.17 in 10.0 mi Calm Calm - N/A   Overcast
3:52 AM 48.2 °F 42.8 °F 82% 30.17 in 10.0 mi Calm Calm - N/A   Overcast
4:13 AM 48.2 °F 42.8 °F 82% 30.17 in 10.0 mi Calm Calm - N/A   Overcast
4:34 AM 48.2 °F 42.8 °F 82% 30.17 in 10.0 mi Calm Calm - N/A   Overcast
4:55 AM 48.2 °F 42.8 °F 82% 30.17 in 10.0 mi Calm Calm - N/A   Overcast
5:37 AM 48.2 °F 42.8 °F 82% 30.19 in 10.0 mi Calm Calm - N/A   Overcast
6:01 AM 50.0 °F 42.8 °F 76% 30.20 in 10.0 mi Calm Calm - N/A   Overcast
6:22 AM 46.4 °F 42.8 °F 87% 30.20 in 10.0 mi Calm Calm - N/A   Mostly Cloudy
6:43 AM 48.2 °F 44.6 °F 87% 30.20 in 10.0 mi Calm Calm - N/A   Scattered Clouds
7:04 AM 48.2 °F 42.8 °F 82% 30.20 in 10.0 mi Calm Calm - N/A   Clear
7:25 AM 48.2 °F 42.8 °F 82% 30.22 in 10.0 mi Calm Calm - N/A   Scattered Clouds
7:46 AM 48.2 °F 42.8 °F 82% 30.23 in 10.0 mi NW 3.5 mph - N/A   Scattered Clouds
8:07 AM 48.2 °F 42.8 °F 82% 30.23 in 10.0 mi NNW 3.5 mph - N/A   Mostly Cloudy
8:28 AM 48.2 °F 42.8 °F 82% 30.23 in 10.0 mi North 3.5 mph - N/A   Mostly Cloudy
8:49 AM 51.8 °F 42.8 °F 71% 30.23 in 10.0 mi North 3.5 mph - N/A   Scattered Clouds
9:10 AM 51.8 °F 42.8 °F 71% 30.24 in 10.0 mi North 4.6 mph - N/A   Clear
9:55 AM 55.4 °F 39.2 °F 54% 30.24 in 10.0 mi Calm Calm - N/A   Clear
10:16 AM 55.4 °F 39.2 °F 54% 30.24 in 10.0 mi Calm Calm - N/A   Clear
10:37 AM 57.2 °F 37.4 °F 48% 30.24 in 10.0 mi WNW 6.9 mph - N/A   Clear
10:58 AM 57.2 °F 37.4 °F 48% 30.24 in 10.0 mi WNW 6.9 mph - N/A   Clear
11:19 AM 59.0 °F 33.8 °F 39% 30.23 in 10.0 mi WNW 6.9 mph - N/A   Scattered Clouds
11:40 AM 60.8 °F 32.0 °F 34% 30.23 in 10.0 mi NW 8.1 mph 19.6 mph N/A   Scattered Clouds
12:01 PM 60.8 °F 30.2 °F 31% 30.23 in 10.0 mi West 9.2 mph 16.1 mph N/A   Scattered Clouds
12:22 PM 60.8 °F 30.2 °F 31% 30.23 in 10.0 mi WNW 9.2 mph - N/A   Scattered Clouds
12:43 PM 60.8 °F 33.8 °F 36% 30.22 in 10.0 mi WNW 8.1 mph 19.6 mph N/A   Scattered Clouds
1:04 PM 60.8 °F 30.2 °F 31% 30.21 in 10.0 mi NW 10.4 mph 16.1 mph N/A   Scattered Clouds
1:25 PM 62.6 °F 28.4 °F 27% 30.21 in 10.0 mi WNW 6.9 mph 16.1 mph N/A   Clear
1:46 PM 62.6 °F 30.2 °F 30% 30.20 in 10.0 mi WSW 9.2 mph - N/A   Clear
2:10 PM 62.6 °F 28.4 °F 27% 30.20 in 10.0 mi West 9.2 mph - N/A   Clear
2:31 PM 62.6 °F 28.4 °F 27% 30.19 in 10.0 mi WSW 8.1 mph - N/A   Clear
2:52 PM 62.6 °F 28.4 °F 27% 30.19 in 10.0 mi West 10.4 mph - N/A   Clear
3:13 PM 62.6 °F 30.2 °F 30% 30.18 in 10.0 mi West 9.2 mph - N/A   Clear
3:34 PM 64.4 °F 30.2 °F 28% 30.17 in 10.0 mi West 9.2 mph 16.1 mph N/A   Scattered Clouds
3:55 PM 62.6 °F 30.2 °F 30% 30.17 in 10.0 mi NW 4.6 mph - N/A   Clear
4:16 PM 64.4 °F 30.2 °F 28% 30.16 in 10.0 mi WNW 8.1 mph - N/A   Clear
4:37 PM 62.6 °F 30.2 °F 30% 30.16 in 10.0 mi WNW 5.8 mph - N/A   Clear
4:58 PM 64.4 °F 32.0 °F 30% 30.16 in 10.0 mi WSW 6.9 mph - N/A   Scattered Clouds
5:19 PM 62.6 °F 32.0 °F 32% 30.16 in 10.0 mi WSW 5.8 mph - N/A   Clear
5:40 PM 62.6 °F 32.0 °F 32% - 10.0 mi WSW 5.8 mph - N/A   Clear
6:46 PM 60.8 °F 33.8 °F 36% 30.15 in 10.0 mi Calm Calm - N/A   Clear
7:28 PM 57.2 °F 35.6 °F 44% - 10.0 mi Calm Calm - N/A   Clear
7:49 PM 57.2 °F 37.4 °F 48% 30.15 in 10.0 mi Calm Calm - N/A   Clear
8:10 PM - 37.4 °F N/A% 30.16 in 10.0 mi Calm Calm - N/A   Clear
8:31 PM 55.4 °F 37.4 °F 51% 30.16 in 10.0 mi Calm Calm - N/A   Clear
8:52 PM 55.4 °F 37.4 °F 51% 30.16 in 10.0 mi SSE 3.5 mph - N/A   Clear
9:13 PM 51.8 °F 42.8 °F 71% 30.16 in 10.0 mi Calm Calm - N/A   Clear
9:34 PM - 39.2 °F N/A% 30.16 in 10.0 mi SSE 3.5 mph - N/A   Clear
9:55 PM 53.6 °F - N/A% 30.16 in 10.0 mi South 4.6 mph - N/A   Clear
10:16 PM 53.6 °F 39.2 °F 58% 30.16 in 10.0 mi South 4.6 mph - N/A   Clear
10:40 PM 53.6 °F 37.4 °F 54% 30.15 in 10.0 mi South 3.5 mph - N/A   Clear
11:01 PM 53.6 °F 37.4 °F 54% 30.15 in 10.0 mi South 3.5 mph - N/A   Clear
11:22 PM 55.4 °F 37.4 °F 51% 30.16 in 10.0 mi South 6.9 mph - N/A   Clear
11:40 PM 53.6 °F 37.4 °F 54% 30.16 in 10.0 mi South 3.5 mph - N/A   Clear